Weather History for Martha's Vineyard, MA

Change the Weather History Date:

Monday, July 1, 2013

  Actual Average Record
Temperature  
Mean Temperature 70 °F -  
Max Temperature 73 °F 74 °F 92 °F (1959)
Min Temperature 68 °F 59 °F 45 °F (1988)
Cooling Degree Days 6    
Growing Degree Days 20 (Base 50)    
Moisture  
Dew Point 68 °F    
Average Humidity 92    
Maximum Humidity 100    
Minimum Humidity 87    
Precipitation  
Precipitation 0.22 in - - ()
Sea Level Pressure  
Sea Level Pressure 30.05 in    
Wind  
Wind Speed 12 mph (SSW)    
Max Wind Speed 17 mph    
Max Gust Speed 24 mph    
Visibility 7 miles    
Events Rain    
Averages and records for this station are not official NWS values.
T = Trace of Precipitation, MM = Missing Value Source: NWS Daily Summary

Daily Weather History Graph

Daily Weather History Graph

Search for Another Location

Airport:

Trip Planner

Search our weather history database for the weather conditions in past years. The results will help you decide how hot, cold, wet, or windy it might be!

Date:

Astronomy

Jul. 01, 2013 Rise Set
Actual Time 5:12 AM EDT 8:19 PM EDT
Civil Twilight 4:39 AM EDT 8:53 PM EDT
Nautical Twilight 3:55 AM EDT 9:36 PM EDT
Astronomical Twilight 3:04 AM EDT 10:27 PM EDT
Moon 12:43 AM EDT (7/1) 2:29 PM EDT (7/1)
Length of Visible Light 16h 14m
Length of Day
15h 06m
Waning Crescent, 35% of the Moon is Illuminated
Jul 1
Waning Crescent
Jul 8
New
Jul 15
First Quarter
Jul 22
Full
Jul 29
Last Quarter

Hourly Weather History & Observations

Time (EDT) Temp. Dew Point Humidity Pressure Visibility Wind Dir Wind Speed Gust Speed Precip Events Conditions
12:53 AM 68.0 °F 66.9 °F 96% 29.99 in 8.0 mi SSW 12.7 mph - 0.00 in Rain Light Rain
1:35 AM 68.0 °F 66.2 °F 94% 29.99 in 8.0 mi SSW 10.4 mph - 0.00 in   Overcast
1:53 AM 68.0 °F 66.0 °F 93% 29.99 in 8.0 mi SSW 11.5 mph - 0.00 in   Overcast
2:53 AM 68.0 °F 66.9 °F 96% 29.99 in 8.0 mi SSW 11.5 mph 20.7 mph N/A   Overcast
3:53 AM 68.0 °F 66.9 °F 96% 29.99 in 7.0 mi SSW 11.5 mph - N/A   Overcast
4:08 AM 69.8 °F 66.2 °F 88% 29.98 in 1.8 mi SW 10.4 mph - 0.03 in Rain Heavy Rain
4:14 AM 68.0 °F 66.2 °F 94% 29.98 in 3.0 mi SSW 11.5 mph - 0.06 in Rain Light Rain
4:53 AM 69.1 °F 68.0 °F 96% 29.99 in 7.0 mi SW 11.5 mph - 0.13 in   Overcast
5:53 AM 69.1 °F 66.9 °F 93% 30.01 in 5.0 mi SSW 8.1 mph - N/A   Overcast
6:53 AM 70.0 °F 69.1 °F 97% 30.02 in 5.0 mi SSW 9.2 mph - N/A   Overcast
7:19 AM 69.8 °F 68.0 °F 94% 30.03 in 2.5 mi SW 11.5 mph - 0.02 in Rain Rain
7:34 AM 69.8 °F 69.8 °F 100% 30.03 in 4.0 mi SW 6.9 mph - 0.04 in Rain Light Rain
7:53 AM 70.0 °F 69.1 °F 97% 30.03 in 6.0 mi SSW 10.4 mph - 0.06 in Rain Light Rain
8:51 AM 69.8 °F 68.0 °F 94% 30.04 in 7.0 mi SSW 10.4 mph - 0.01 in   Overcast
8:53 AM 70.0 °F 68.0 °F 93% 30.04 in 6.0 mi South 9.2 mph - 0.01 in Rain Light Rain
9:53 AM 72.0 °F 70.0 °F 93% 30.04 in 5.0 mi SSW 12.7 mph - 0.02 in   Overcast
10:32 AM 73.4 °F 69.8 °F 88% 30.04 in 7.0 mi SSW 13.8 mph - N/A   Overcast
10:53 AM 73.0 °F 69.1 °F 87% 30.04 in 8.0 mi SSW 17.3 mph 24.2 mph N/A   Overcast
11:53 AM 72.0 °F 69.1 °F 91% 30.06 in 7.0 mi SSW 15.0 mph - N/A   Overcast
12:53 PM 72.0 °F 69.1 °F 91% 30.07 in 8.0 mi SW 12.7 mph 20.7 mph N/A   Overcast
1:31 PM 73.4 °F 69.8 °F 88% 30.06 in 8.0 mi SW 12.7 mph 23.0 mph 0.00 in   Overcast
1:42 PM 73.4 °F 69.8 °F 88% 30.06 in 8.0 mi SW 15.0 mph - 0.00 in   Overcast
1:53 PM 73.9 °F 70.0 °F 87% 30.06 in 9.0 mi SW 16.1 mph 23.0 mph 0.00 in   Overcast
2:53 PM 73.0 °F 69.1 °F 87% 30.06 in 5.0 mi SSW 16.1 mph 23.0 mph N/A   Overcast
3:11 PM 73.4 °F 69.8 °F 88% 30.07 in 10.0 mi SSW 13.8 mph 21.9 mph N/A   Mostly Cloudy
3:47 PM 73.4 °F 69.8 °F 88% 30.07 in 10.0 mi SSW 15.0 mph 21.9 mph N/A   Overcast
3:53 PM 72.0 °F 69.1 °F 91% 30.07 in 9.0 mi SSW 15.0 mph 21.9 mph N/A   Overcast
4:53 PM 72.0 °F 69.1 °F 91% 30.07 in 7.0 mi SSW 12.7 mph 20.7 mph 0.00 in   Overcast
5:28 PM 71.6 °F 69.8 °F 94% 30.07 in 8.0 mi SSW 13.8 mph - N/A   Overcast
5:36 PM 71.6 °F 69.8 °F 94% 30.07 in 8.0 mi SSW 12.7 mph 21.9 mph N/A   Overcast
5:45 PM 73.4 °F 69.8 °F 88% 30.07 in 9.0 mi SSW 13.8 mph 21.9 mph N/A   Overcast
5:53 PM 73.0 °F 69.1 °F 87% 30.07 in 9.0 mi SSW 15.0 mph 21.9 mph N/A   Overcast
6:53 PM 70.0 °F 68.0 °F 93% 30.08 in 7.0 mi SSW 10.4 mph - N/A   Overcast
7:53 PM 70.0 °F 66.9 °F 90% 30.09 in 7.0 mi SSW 9.2 mph - N/A   Overcast
8:48 PM 69.8 °F 66.2 °F 88% 30.12 in 7.0 mi SSW 13.8 mph - N/A   Overcast
8:53 PM 69.1 °F 66.9 °F 93% 30.12 in 7.0 mi SSW 15.0 mph - N/A   Overcast
9:12 PM 69.8 °F 66.2 °F 88% 30.12 in 7.0 mi SW 11.5 mph - N/A   Overcast
9:53 PM 70.0 °F 68.0 °F 93% 30.13 in 8.0 mi SSW 10.4 mph - N/A   Mostly Cloudy
10:53 PM 69.1 °F 66.9 °F 93% 30.14 in 8.0 mi SSW 8.1 mph - N/A   Scattered Clouds
11:02 PM 69.8 °F 66.2 °F 88% 30.13 in 8.0 mi SSW 9.2 mph - N/A   Mostly Cloudy
11:53 PM 68.0 °F 66.9 °F 96% 30.13 in 8.0 mi SSW 10.4 mph - N/A   Mostly Cloudy